EDT,Max TemperatureF,Mean TemperatureF,Min TemperatureF,Max Dew PointF,MeanDew PointF,Min DewpointF,Max Humidity, Mean Humidity, Min Humidity, Max Sea Level PressureIn, Mean Sea Level PressureIn, Min Sea Level PressureIn, Max VisibilityMiles, Mean VisibilityMiles, Min VisibilityMiles, Max Wind SpeedMPH, Mean Wind SpeedMPH, Max Gust SpeedMPH,PrecipitationIn, CloudCover, Events, WindDirDegrees
2011-10-1,73,63,53,46,41,36,72,47,25,30.00,29.94,29.87,10,10,10,17,7,24,0.00,0,,334
2011-10-2,73,58,42,43,41,39,93,60,31,30.10,30.05,29.99,10,10,10,9,3,,0.00,0,,304
2011-10-3,80,61,42,39,37,34,81,44,21,30.19,30.12,30.07,10,10,10,10,4,,0.00,0,,334
2011-10-4,84,63,42,50,43,39,100,57,25,30.24,30.18,30.13,10,10,10,8,1,,0.00,0,,75
2011-10-5,84,66,48,55,51,48,100,65,33,30.25,30.19,30.13,10,10,10,9,1,,0.00,0,,81
2011-10-6,84,67,50,57,52,48,100,68,30,30.26,30.21,30.18,10,10,10,13,3,21,0.00,0,,68
2011-10-7,82,70,57,59,54,50,82,60,37,30.33,30.28,30.23,10,10,10,15,6,21,0.00,1,,63
2011-10-8,80,70,60,59,56,54,77,64,44,30.35,30.31,30.24,10,10,10,16,9,23,0.00,0,,68
2011-10-9,78,72,66,61,53,45,64,54,43,30.27,30.20,30.10,10,10,10,20,11,26,0.00,5,,62
2011-10-10,71,68,66,68,66,61,100,95,69,30.08,29.97,29.89,10,8,2,17,11,29,0.00,8,,51
2011-10-11,68,66,64,68,66,64,100,100,94,29.89,29.86,29.83,10,8,1,14,9,20,0.00,8,,59
2011-10-12,71,66,62,70,64,63,100,100,88,29.86,29.83,29.80,10,6,1,6,2,,0.00,8,,19
2011-10-13,78,68,59,64,60,57,100,77,51,29.79,29.73,29.65,10,10,3,17,9,26,0.00,4,Rain-Thunderstorm,258
2011-10-14,78,66,55,59,52,43,100,68,28,29.93,29.86,29.78,10,10,5,14,5,22,0.00,0,,295
2011-10-15,82,66,51,59,50,46,100,61,28,30.10,30.05,30.01,10,10,10,12,4,21,0.00,0,,292
2011-10-16,84,65,46,59,48,43,100,63,23,30.19,30.13,30.05,10,10,10,6,0,,0.00,0,,50
2011-10-17,86,68,50,61,53,50,100,71,29,30.07,30.01,29.91,10,10,10,8,1,,0.00,0,,267
2011-10-18,78,66,53,70,62,54,100,95,69,29.91,29.83,29.68,10,7,0,13,1,,0.00,5,Fog-Rain,151
2011-10-19,69,60,50,70,59,43,100,89,63,29.73,29.54,29.44,10,8,2,20,6,28,0.00,7,Rain,277
2011-10-20,62,54,46,43,41,37,87,65,39,30.01,29.92,29.81,10,10,10,16,9,24,0.00,3,,273
2011-10-21,66,54,41,45,40,36,100,68,32,30.19,30.12,30.08,10,10,10,12,3,17,0.00,0,,300
2011-10-22,68,52,37,50,42,37,100,73,37,30.17,30.12,30.08,10,10,7,9,2,,0.00,0,,51
2011-10-23,69,55,41,52,44,41,100,75,38,30.17,30.11,30.06,10,9,3,8,1,,0.00,0,,69
2011-10-24,73,58,42,54,47,43,100,76,38,30.19,30.13,30.10,10,9,5,8,1,,0.00,2,,331
2011-10-25,78,61,44,54,48,43,100,69,28,30.27,30.20,30.16,10,10,7,9,1,,0.00,0,,101
2011-10-26,78,61,44,61,49,45,100,76,30,30.20,30.12,30.01,10,7,0,9,1,,0.00,2,Fog,241
2011-10-27,78,64,50,57,53,50,100,74,39,30.02,29.97,29.90,10,10,7,12,2,17,0.00,6,,263
2011-10-28,78,64,50,61,55,50,100,78,44,29.99,29.94,29.89,10,9,4,10,1,18,0.00,2,,213
2011-10-29,66,54,42,61,45,34,94,73,34,30.15,30.02,29.90,10,10,10,15,6,21,0.00,4,,353
2011-10-30,62,47,32,37,33,28,100,64,27,30.33,30.25,30.18,10,10,10,13,3,18,0.00,0,,77
2011-10-31,60,50,41,54,43,37,94,75,52,30.27,30.21,30.16,10,10,7,12,3,,0.00,6,Rain,41